Reflectivity
-20 -20 -20 -20 -20 -20 -20 -20 -20 -20 -20 -20 -20 -20 -20 -20 -20 -20 -20 -20 -20 -20 -20 -20 -20 36 -8 7 18 -19 -20 16 22 27 -9 -20 -20 -19 -20 2 -20 -20 -20 -20 -20
-20 -20 -20 -20 -20 -20 -20 -20 -20 -20 -20 -20 -20 -20 -20 -20 -20 -20 -20 -20 -20 -20 -20 -20 -6 -18 33 1 2 -20 5 -13 7 -13 -20 -20 -20 21 -20 -20 -20 -20 -6 -20 -20
-20 -20 -20 -20 -20 -20 -20 -20 -20 -20 -20 -20 -20 -20 -20 -20 -20 -20 -20 -20 -20 -20 1 -13 -20 -20 -17 -15 -20 -20 -15 -20 -20 -20 17 -20 -20 -20 -20 -20 -20 -20 -20 -20 -20
-16 -18 -19 -20 -20 -20 -20 -20 -20 -20 -20 -20 -20 -20 -20 -20 -20 -20 -20 -20 -20 -8 -2 -6 -17 -20 -20 -20 -20 -20 -1 -20 -20 -20 -20 -20 -20 -20 -20 -20 -20 -20 -20 -20 -20
-20 8 -17 6 -19 -20 -20 -20 -20 -20 -20 -20 -20 -20 -20 -20 -20 -20 -20 -10 -20 -20 -19 30 8 1 -16 -11 -12 -20 -20 -20 -20 -20 -20 -20 -20 -20 -20 -20 -20 -20 -20 -20 -20
12 5 5 -19 8 -20 -20 -20 -20 -20 -20 -20 -20 -20 -20 -20 -20 -20 -20 -20 -20 -20 -15 12 12 -7 -10 -11 -20 -20 -20 -20 -20 -20 -20 -20 -20 -20 -20 -20 -20 -20 -20 -20 -20
9 13 11 11 8 -12 -20 -20 -20 -20 -20 -20 -20 -20 -20 -20 -20 -20 -20 -20 -20 -20 -20 -20 -20 -20 -20 -20 -20 -20 -20 -20 -20 -20 -20 -20 -20 -20 -20 -20 -20 -20 -20 -20 -20
-20 8 12 11 10 8 -2 -20 -20 -20 -20 -20 -20 -20 -20 -20 -20 -20 -20 -20 -20 -20 -20 -20 -1 -20 2 -20 -20 -20 -20 -20 -20 -20 -7 13 -20 -20 -20 -20 -20 -20 -20 -20 -20
-20 -20 -20 6 2 -9 -20 -20 -20 -20 -20 -20 -20 -20 -20 -20 -20 -20 -20 -20 -20 -20 -20 -20 2 -20 2 -4 -1 -17 3 9 19 -18 20 23 -20 -20 -20 -20 -20 -20 -20 -20 -20
-20 -20 -20 -15 -20 -20 -20 -20 -20 -20 -20 -20 -20 -20 -20 -20 -20 -20 -20 -20 -20 -20 -20 -20 -20 26 9 3 -3 -20 -20 -20 -18 -10 -18 11 -19 5 -15 -20 -20 -20 -20 -20 -20
-20 -20 -20 -20 -20 -20 -20 -20 -20 -20 -20 -20 -20 -20 -20 -20 -20 -20 -20 -20 -20 -20 -20 13 -20 -20 28 -4 -20 -20 -20 -20 -20 6 -20 -20 -20 -15 -15 -9 -20 -20 -20 -20 -20
-20 -20 -20 -20 -20 -20 -20 -20 -20 -20 -20 -20 -20 -20 -20 -20 -20 -20 -20 -20 -20 -20 -20 -20 -20 -20 23 22 -1 -20 -12 -20 -17 23 0 -18 -20 -4 -20 -0 -7 -20 -20 -20 -20
-20 -20 -20 -20 -17 -10 -20 -20 -20 -20 -20 -20 -20 -20 -20 -20 -20 -20 -20 -20 -20 -20 -20 -20 -20 -20 -20 4 4 -20 -20 26 -15 -5 -18 -16 -20 -7 -9 -17 -14 -20 -20 -20 -20
-20 -20 -20 -20 -15 -20 -20 -20 -20 -20 -20 -20 -20 -20 -20 -20 -20 -20 -20 -20 -20 -20 -20 -20 -20 -20 -20 -12 5 -1 9 -17 -20 -20 -11 -3 -17 -20 -20 -20 -19 -12 -20 -20 -20
-20 -20 -20 -20 -20 -20 -20 -20 -20 -20 -20 -20 -20 -20 -20 -20 -20 -20 -20 -20 -20 -20 -20 -20 -20 -20 -20 -20 -20 -13 -20 -20 -20 -20 -20 -20 -20 -20 -0 -16 -6 -20 -20 -20 -20
-20 -20 -20 -6 -20 -20 -20 -20 -20 -20 -20 -20 -20 -20 -20 -20 -20 -20 -20 -20 -20 -20 -20 -20 -20 -20 -20 -20 -20 -20 -20 -20 -20 -20 -20 -20 -20 -20 -20 -20 -20 -0 -20 -20 -20
-20 -20 -20 -20 -20 -20 -20 -20 -20 -20 -20 -20 -20 -20 -20 -20 -20 -20 -20 -20 -20 -20 -20 -20 -20 -20 -20 -20 -20 -20 -20 -20 -20 -20 -20 -20 -20 -20 -20 -20 -20 -14 -20 -20 -20
-20 -20 -20 -20 -20 -20 -20 -20 -20 -20 -20 -20 -20 -20 -20 -20 -20 -20 -20 -20 -20 -20 -20 -20 -20 -20 -20 -20 -20 -20 -20 -20 -20 -20 -20 -20 -20 -20 -20 -20 -12 -17 -16 -20 -18
-20 -20 -20 -20 -20 -20 -20 -20 -20 -20 -20 -20 -20 -20 -20 -20 -20 -20 -20 -20 -20 -20 -20 -20 -20 -20 -20 -20 -20 -20 -20 -20 -20 -20 -20 -20 -20 -20 -20 -20 -20 -20 -20 -20 -20
-20 -20 -20 -20 -20 -20 -20 -20 -20 -20 -20 -20 -20 -20 -20 -20 -20 -20 -20 -20 -20 -20 -20 -20 -20 -20 -20 -20 -20 -20 -20 -20 -20 -20 -20 -20 -20 -20 -20 -20 -20 -20 13 -11 -20
-20 -20 -20 -20 -20 -20 -20 -20 -20 -20 -20 -20 -20 -20 -20 -20 -20 -20 -20 -20 -20 -20 -20 -20 -20 -20 -20 -20 -20 -20 -20 -20 -20 -20 -20 -20 -20 -20 -20 -20 -20 -20 -20 -15 -6
-20 -20 -20 -20 -20 -20 -20 -20 -20 -20 -20 -20 -20 -20 -20 -20 -20 -20 -20 -20 -20 -20 -20 -20 -20 -20 -20 -20 -20 -20 -20 -20 -20 -20 -20 -20 -20 -20 -20 -20 -20 -20 -20 0 28
-20 -20 -20 -20 -20 -20 -20 -20 -20 -20 -20 -20 -20 -20 -20 -20 -20 -20 -20 -20 -20 -20 -20 -20 -20 -20 -20 -20 -20 -20 -20 -20 -20 -20 -20 -20 -20 -20 -20 -20 -20 -20 -20 -20 14
-20 -20 -20 -20 -20 -20 -20 -20 -20 -20 -20 -20 -20 -20 -20 -20 -20 -20 -20 -20 -20 -20 -20 -20 -20 -20 -20 -20 -20 -20 -20 -20 -20 -20 -20 -20 -20 -20 -20 -20 -16 -20 -20 -19 -4
-20 -20 -20 -20 -20 -20 -20 -20 -20 -20 -20 -20 -20 -20 -20 -20 -20 -20 -20 -20 -20 -20 -20 -20 -20 -20 -20 -20 -20 -20 -20 -20 -20 -20 -20 -20 -20 -20 -20 -20 25 26 14 -20 -20
-20 -20 -20 -20 -20 -20 -20 -20 -20 -20 -20 -20 -20 -20 -20 -20 -20 -20 -20 -20 -20 -20 -20 -20 -20 -20 -20 -20 -20 -20 -20 -20 -20 -20 -20 -20 -20 -20 -20 -20 -20 -20 -1 -20 -20
-20 -20 -20 -20 -20 -20 -20 -20 -20 -20 -20 -20 -20 -20 -20 -20 -20 -20 -20 -20 -20 -20 -20 -20 -20 -20 -20 -20 -20 -20 -20 -20 -20 -20 -20 -20 -20 -20 -20 -20 -20 -20 -20 -20 -20
Wind_Speed
16 16 16 16 16 16 15 14 14 13 13 12 12 11 10 9 10 4 7 11 8 11 4 7 7 10 5 1 4 3 3 4 2 6 8 6 5 4 3 11 12 2 9 19 18
17 17 16 17 17 17 16 15 14 14 14 13 13 12 10 8 3 8 10 11 11 14 6 5 4 3 4 3 3 3 3 6 3 8 15 12 11 8 6 4 3 4 13 15 19
17 17 17 17 18 17 17 16 15 14 14 13 13 12 10 5 3 5 15 9 14 14 13 12 11 6 5 4 5 4 6 8 23 18 16 16 4 3 5 4 6 21 21 18 15
18 17 17 18 17 18 17 16 15 14 14 13 12 11 9 3 3 3 16 13 15 10 17 11 13 5 0 3 5 3 14 16 13 12 18 12 12 6 7 5 9 24 24 20 16
18 17 17 17 17 17 18 16 15 13 13 12 11 9 4 3 8 8 13 10 15 20 20 18 10 0 7 6 6 5 5 10 18 18 6 16 11 9 11 6 16 21 20 18 16
18 18 18 17 17 17 18 17 16 14 12 11 8 4 2 3 3 14 14 10 17 17 10 13 9 8 9 2 2 5 15 18 11 10 4 11 8 9 7 15 15 19 17 16 13
19 18 18 17 17 16 17 17 17 15 12 11 7 3 0 12 5 10 13 10 13 15 8 6 5 6 4 6 6 8 9 11 5 3 3 3 6 1 14 15 16 14 14 14 8
19 19 17 17 16 16 17 17 18 15 12 9 2 2 8 4 7 8 7 6 15 14 7 8 9 6 2 9 5 8 4 7 6 8 4 10 4 6 7 14 15 14 14 13 10
18 18 17 15 14 15 15 17 18 14 6 2 2 2 10 3 7 8 8 7 12 9 5 16 7 2 5 6 6 7 3 12 11 6 5 13 5 9 9 5 16 16 16 14 12
17 16 16 13 12 12 14 13 9 10 5 6 5 3 6 7 5 8 9 9 5 22 11 5 2 5 9 3 2 3 6 12 12 7 8 10 10 13 14 15 16 18 16 16 15
17 14 13 11 8 8 8 3 4 4 1 10 8 5 5 3 2 5 8 6 4 1 9 9 6 10 13 5 5 7 16 18 19 27 10 11 10 10 8 3 16 17 17 17 17
18 14 12 8 5 3 1 2 8 4 7 14 14 8 10 3 5 6 8 7 5 7 2 5 6 10 8 7 17 15 18 22 16 11 6 9 10 11 6 9 14 20 18 19 16
19 14 11 7 2 1 3 9 5 7 1 8 8 7 11 9 9 10 9 5 6 5 8 7 8 15 7 4 16 12 17 22 9 14 7 10 5 11 8 9 8 9 16 16 19
21 15 10 6 2 2 6 9 7 6 6 9 5 9 6 8 8 8 8 11 3 10 9 7 13 16 8 8 15 11 17 15 12 4 7 6 6 6 7 14 10 15 13 18 19
22 15 10 3 3 1 9 7 5 8 3 3 4 3 3 11 2 6 5 4 13 11 6 14 15 12 13 13 15 15 15 10 14 8 4 5 6 8 12 15 17 19 14 24 23
23 15 10 3 2 10 9 11 6 8 5 2 2 2 4 2 6 7 2 5 3 6 4 12 4 8 13 9 16 18 8 6 3 4 3 7 3 7 7 11 7 14 14 18 19
23 13 4 1 6 2 7 6 7 4 6 9 2 3 3 4 6 6 9 5 7 4 6 10 11 6 5 3 6 5 3 5 5 5 7 6 1 10 8 11 9 11 15 11 9
29 12 9 6 6 5 5 7 7 2 4 4 3 1 6 4 4 4 2 8 8 2 4 3 9 1 4 1 6 7 7 7 7 5 7 3 6 8 3 8 12 4 9 5 9
26 1 2 7 6 5 7 6 4 1 3 7 9 8 8 8 1 8 5 5 2 4 5 4 5 5 3 4 4 9 9 6 4 2 3 4 8 9 6 8 5 8 7 13 19
4 4 5 6 9 6 7 4 2 1 3 7 6 3 6 8 7 7 8 3 4 7 5 4 3 2 8 7 3 5 6 10 6 2 3 6 3 7 1 5 5 1 8 12 16
2 4 8 4 6 6 3 6 2 4 5 5 6 5 4 4 3 5 5 6 16 6 6 2 4 9 5 4 6 12 7 5 2 4 1 4 7 8 9 6 10 9 13 10 7
4 3 5 4 6 2 2 4 4 4 9 8 5 5 2 3 4 6 7 5 13 10 5 3 5 3 7 8 6 4 5 5 6 8 2 6 8 8 10 8 16 10 6 13 14
2 4 5 6 4 5 7 7 8 7 7 5 7 6 3 5 5 6 7 5 14 11 5 7 3 5 12 10 7 4 4 3 2 3 1 3 8 17 6 10 10 12 5 7 5
3 5 7 6 2 4 7 5 4 7 7 6 5 7 7 8 3 5 10 5 6 6 9 5 2 6 6 8 4 9 12 4 6 3 3 5 8 15 12 7 6 13 14 12 10
5 2 1 5 6 6 1 3 6 6 5 8 7 4 3 4 8 8 6 9 9 6 8 5 3 3 5 6 5 4 9 8 3 7 4 5 6 11 5 2 9 7 13 18 16
4 5 6 4 6 7 6 6 4 4 3 4 4 4 4 1 3 4 3 2 6 5 6 4 4 4 5 8 6 6 10 9 4 3 5 5 4 8 10 7 5 6 8 8 13
4 4 4 5 7 5 6 5 7 4 4 1 3 2 5 4 3 5 7 8 9 6 6 2 3 3 5 5 6 7 6 5 5 3 4 7 9 16 15 11 7 8 6 11 11
Wind_Direction
331 330 328 326 325 325 325 327 327 329 329 330 327 317 310 306 292 180 228 224 176 189 122 142 213 226 115 347 43 58 9 267 240 54 293 208 134 165 82 134 151 221 156 161 135
326 325 324 322 320 321 322 324 325 329 330 331 326 318 310 315 257 224 244 190 192 158 160 171 210 255 70 114 148 130 238 280 14 206 205 218 169 153 143 159 222 120 136 160 132
321 319 318 317 316 317 318 321 324 328 329 330 325 316 308 313 281 242 178 170 157 158 56 33 17 87 127 210 183 173 245 259 280 242 213 192 160 110 122 203 200 153 157 169 154
320 318 315 313 313 313 315 317 322 325 326 327 322 313 309 215 64 58 147 155 120 81 49 38 49 28 143 270 194 202 233 240 280 311 174 179 138 158 180 234 168 157 162 168 176
317 313 311 310 311 311 312 314 317 322 322 323 319 315 298 322 251 138 124 120 107 97 80 54 322 75 263 184 296 220 279 296 300 297 200 142 180 170 202 149 142 153 163 174 182
314 310 307 305 305 306 307 310 314 316 317 316 314 313 301 314 124 146 131 130 122 126 141 143 212 168 284 6 27 293 306 288 285 276 172 176 173 161 185 149 140 161 172 177 186
317 311 305 303 302 302 303 305 307 309 311 307 291 242 44 239 151 155 142 157 151 158 173 213 132 104 17 298 241 266 308 312 358 285 20 96 70 77 142 154 152 168 179 184 193
321 314 307 304 300 299 298 298 298 299 302 288 191 245 248 241 142 153 182 182 155 182 156 78 94 81 211 248 243 333 82 351 327 23 38 27 44 333 61 161 172 166 180 188 208
321 315 310 305 299 296 291 290 292 293 269 247 143 178 268 315 171 205 170 197 178 167 90 119 131 172 328 0 9 9 350 320 330 5 72 62 283 147 132 145 169 178 180 187 212
329 322 315 309 300 292 292 280 283 308 191 201 254 328 274 231 193 187 206 210 203 111 101 113 211 68 289 53 125 285 292 284 274 264 76 135 235 179 168 156 194 181 187 189 199
335 329 321 313 303 313 335 97 30 2 273 196 201 226 273 228 294 225 182 182 222 358 183 201 148 164 239 337 314 310 276 264 266 272 229 166 212 207 197 179 176 198 191 194 200
339 336 330 318 298 320 107 191 211 153 293 224 239 256 276 73 319 265 107 154 168 222 253 72 184 178 157 18 287 244 266 283 279 292 166 161 212 220 225 226 190 189 200 197 193
340 338 333 325 63 245 203 234 263 33 62 288 198 197 238 138 221 244 143 173 189 237 243 203 198 182 172 215 272 239 223 255 247 312 93 119 331 258 227 226 229 202 205 204 189
337 335 324 328 321 255 255 262 256 150 56 277 199 251 198 149 288 223 198 169 183 214 236 232 154 177 212 231 259 262 208 249 302 353 161 193 228 285 247 231 240 217 202 205 197
334 329 311 287 284 261 243 333 297 59 28 209 206 210 164 160 188 275 182 139 223 228 136 250 171 189 229 220 243 253 289 278 286 271 64 326 97 243 217 235 221 220 224 201 194
330 323 317 126 224 242 325 318 48 48 284 293 146 207 134 172 255 275 17 148 211 189 223 243 222 185 211 232 226 258 283 300 12 87 47 240 134 281 204 225 195 190 204 185 195
327 315 255 318 240 5 354 38 50 107 305 335 356 282 202 270 261 194 253 276 193 122 259 280 275 288 176 255 304 207 98 305 337 4 221 197 185 235 269 239 231 187 184 178 176
325 316 204 220 242 37 37 49 52 256 347 290 302 46 119 340 275 236 203 251 18 246 75 172 310 1 339 193 225 287 167 162 211 202 240 67 240 260 219 249 232 342 91 88 212
319 19 258 253 185 110 70 55 210 3 319 338 344 54 351 349 75 21 53 43 29 32 81 54 293 303 63 243 146 319 354 230 160 80 95 233 293 324 18 30 65 111 111 22 340
343 345 271 247 128 69 72 236 312 30 360 53 43 52 8 337 33 28 9 324 340 32 121 311 328 322 304 351 88 90 283 358 357 336 282 283 288 236 299 174 167 98 72 50 0
34 32 258 109 81 58 139 229 261 58 72 62 24 28 8 11 14 354 332 14 354 343 60 102 102 292 14 30 318 349 6 10 140 86 322 305 274 226 210 234 108 87 82 64 32
358 37 301 16 48 39 355 305 307 12 30 38 90 65 35 316 356 2 14 56 357 358 28 333 126 323 257 266 263 217 113 94 87 306 256 165 279 360 288 230 117 121 119 108 11
21 270 320 72 80 340 321 333 50 54 20 32 21 29 6 346 7 41 351 46 31 16 20 324 354 7 343 350 7 41 68 85 167 57 313 77 284 329 360 349 39 120 139 126 89
43 9 336 22 95 79 6 324 77 29 55 45 37 54 23 14 29 316 355 335 32 353 7 58 76 151 193 234 268 318 331 3 116 102 242 235 287 321 346 340 84 131 128 125 111
24 354 128 326 334 341 22 326 53 18 19 31 18 74 70 352 349 356 355 337 345 18 25 72 254 50 262 255 316 312 335 353 332 248 179 255 287 282 294 263 280 159 173 165 155
59 27 346 297 305 339 1 354 42 355 68 7 50 356 45 11 193 267 341 353 262 321 26 352 271 0 302 298 324 305 310 294 264 289 295 291 297 276 296 294 278 331 172 155 145
325 333 101 290 339 32 328 331 49 27 325 115 320 337 315 271 219 234 207 201 221 251 300 259 170 68 265 303 351 338 217 277 282 338 316 40 320 335 324 313 302 290 198 178 167